H1 CPF 2 NER 2021 5 4 9 124 01 glonass134 H2 1407501 9134 40315 2021 5 4 0 0 0 2021 5 7 23 45 0 900 1 1 0 0 0 1 H9 10 0 59338 0.00000 0 -17985373.375 -1236872.471 18027630.871 10 0 59338 900.00000 0 -19801464.305 -2275652.608 15889082.123 10 0 59338 1800.00000 0 -21436173.204 -3053067.844 13441257.838 10 0 59338 2700.00000 0 -22831102.345 -3584955.075 10731645.220 10 0 59338 3600.00000 0 -23934290.570 -3898124.819 7812903.108 10 0 59338 4500.00000 0 -24702374.006 -4028975.678 4741836.905 10 0 59338 5400.00000 0 -25102407.066 -4021698.664 1578285.764 10 0 59338 6300.00000 0 -25113264.866 -3926148.038 -1616055.597 10 0 59338 7200.00000 0 -24726565.965 -3795470.173 -4778856.091 10 0 59338 8100.00000 0 -23947074.864 -3683592.921 -7848382.955 10 0 59338 9000.00000 0 -22792566.127 -3642684.214 -10764725.853 10 0 59338 9900.00000 0 -21293155.357 -3720690.138 -13470984.314 10 0 59338 10800.00000 0 -19490125.393 -3959059.263 -15914393.480 10 0 59338 11700.00000 0 -17434297.865 -4390751.814 -18047364.600 10 0 59338 12600.00000 0 -15184019.860 -5038619.601 -19828418.832 10 0 59338 13500.00000 0 -12802851.630 -5914226.375 -21222995.637 10 0 59338 14400.00000 0 -10357053.710 -7017158.944 -22204120.113 10 0 59338 15300.00000 0 -7912979.831 -8334858.071 -22752916.811 10 0 59338 16200.00000 0 -5534485.296 -9842975.776 -22858961.157 10 0 59338 17100.00000 0 -3280459.006 -11506243.275 -22520463.044 10 0 59338 18000.00000 0 -1202581.508 -13279812.122 -21744280.587 10 0 59338 18900.00000 0 656598.937 -15111011.434 -20545765.466 10 0 59338 19800.00000 0 2265194.174 -16941446.873 -18948444.396 10 0 59338 20700.00000 0 3603046.699 -18709353.056 -16983544.323 10 0 59338 21600.00000 0 4662301.309 -20352100.924 -14689371.712 10 0 59338 22500.00000 0 5447457.077 -21808755.596 -12110558.780 10 0 59338 23400.00000 0 5974900.474 -23022578.408 -9297191.885 10 0 59338 24300.00000 0 6271941.934 -23943369.599 -6303839.167 10 0 59338 25200.00000 0 6375398.509 -24529554.975 -3188496.180 10 0 59338 26100.00000 0 6329783.762 -24749930.594 -11469.675 10 0 59338 27000.00000 0 6185181.979 -24584993.883 3165779.487 10 0 59338 27900.00000 0 5994896.547 -24027806.637 6281812.764 10 0 59338 28800.00000 0 5812971.279 -23084354.621 9276387.821 10 0 59338 29700.00000 0 5691688.480 -21773389.150 12091608.399 10 0 59338 30600.00000 0 5679148.335 -20125757.087 14673029.203 10 0 59338 31500.00000 0 5817030.633 -18183246.592 16970695.645 10 0 59338 32400.00000 0 6138632.417 -15996995.537 18940099.635 10 0 59338 33300.00000 0 6667263.793 -13625527.258 20543034.049 10 0 59338 34200.00000 0 7415069.587 -11132493.481 21748330.163 10 0 59338 35100.00000 0 8382327.213 -8584216.205 22532464.349 10 0 59338 36000.00000 0 9557251.788 -6047128.565 22880022.402 10 0 59338 36900.00000 0 10916318.754 -3585219.214 22784012.120 10 0 59338 37800.00000 0 12425093.077 -1257584.857 22246017.261 10 0 59338 38700.00000 0 14039533.139 883808.439 21276188.555 10 0 59338 39600.00000 0 15707717.433 2796062.477 19893070.288 10 0 59338 40500.00000 0 17371924.295 4446902.072 18123263.859 10 0 59338 41400.00000 0 18970979.515 5815782.881 16000932.805 10 0 59338 42300.00000 0 20442774.606 6894504.768 13567157.007 10 0 59338 43200.00000 0 21726850.510 7687304.306 10869146.971 10 0 59338 44100.00000 0 22766937.796 8210421.717 7959332.237 10 0 59338 45000.00000 0 23513345.275 8491160.006 4894341.127 10 0 59338 45900.00000 0 23925094.744 8566475.915 1733891.695 10 0 59338 46800.00000 0 23971709.718 8481162.762 -1460383.814 10 0 59338 47700.00000 0 23634580.477 8285703.098 -4626156.722 10 0 59338 48600.00000 0 22907845.784 8033883.821 -7701636.438 10 0 59338 49500.00000 0 21798752.389 7780276.917 -10626795.661 10 0 59338 50400.00000 0 20327476.077 7577694.943 -13344560.192 10 0 59338 51300.00000 0 18526411.377 7474731.537 -15801938.251 10 0 59338 52200.00000 0 16438960.003 7513493.349 -17951065.677 10 0 59338 53100.00000 0 14117869.780 7727621.212 -19750145.419 10 0 59338 54000.00000 0 11623194.879 8140685.550 -21164262.490 10 0 59338 54900.00000 0 9019964.092 8765024.478 -22166058.531 10 0 59338 55800.00000 0 6375655.954 9601073.632 -22736253.388 10 0 59338 56700.00000 0 3757587.002 10637215.536 -22864004.618 10 0 59338 57600.00000 0 1230322.457 11850153.898 -22547099.326 10 0 59338 58500.00000 0 -1146783.014 13205796.005 -21791976.186 10 0 59338 59400.00000 0 -3321813.079 14660604.898 -20613578.885 10 0 59338 60300.00000 0 -5252195.046 16163363.578 -19035045.396 10 0 59338 61200.00000 0 -6906205.596 17657276.345 -17087240.561 10 0 59338 62100.00000 0 -8264017.024 19082318.758 -14808142.193 10 0 59338 63000.00000 0 -9318243.389 20377737.681 -12242093.456 10 0 59338 63900.00000 0 -10073966.803 21484596.981 -9438936.611 10 0 59338 64800.00000 0 -10548245.714 22348262.958 -6453045.154 10 0 59338 65700.00000 0 -10769128.301 22920726.403 -3342272.985 10 0 59338 66600.00000 0 -10774214.350 23162665.109 -166840.733 10 0 59338 67500.00000 0 -10608827.415 23045161.688 3011819.849 10 0 59338 68400.00000 0 -10323874.817 22551005.760 6132241.859 10 0 59338 69300.00000 0 -9973485.611 21675526.825 9134097.774 10 0 59338 70200.00000 0 -9612525.523 20426923.352 11959350.980 10 0 59338 71100.00000 0 -9294092.699 18826074.202 14553363.326 10 0 59338 72000.00000 0 -9067098.682 16905839.645 16865938.496 10 0 59338 72900.00000 0 -8974035.490 14709879.932 18852282.302 10 0 59338 73800.00000 0 -9049022.001 12291038.916 20473862.478 10 0 59338 74700.00000 0 -9316211.486 9709358.040 21699152.147 10 0 59338 75600.00000 0 -9788627.461 7029800.900 22504243.172 10 0 59338 76500.00000 0 -10467477.625 4319780.603 22873317.655 10 0 59338 77400.00000 0 -11341976.205 1646590.441 22798968.078 10 0 59338 78300.00000 0 -12389684.198 -925157.367 22282359.095 10 0 59338 79200.00000 0 -13577355.692 -3335979.953 21333226.531 10 0 59338 80100.00000 0 -14862257.326 -5533758.193 19969711.935 10 0 59338 81000.00000 0 -16193908.018 -7475664.615 18218034.004 10 0 59338 81900.00000 0 -17516168.081 -9129704.367 16112001.158 10 0 59338 82800.00000 0 -18769591.476 -10475804.248 13692372.883 10 0 59338 83700.00000 0 -19893943.121 -11506403.474 11006080.533 10 0 59338 84600.00000 0 -20830775.273 -12226520.574 8105321.527 10 0 59338 85500.00000 0 -21525953.599 -12653292.850 5046543.982 10 0 59339 0.00000 0 -21932024.897 -12815007.509 1889341.593 10 0 59339 900.00000 0 -22010324.150 -12749665.507 -1304719.448 10 0 59339 1800.00000 0 -21732730.683 -12503139.500 -4473316.327 10 0 59339 2700.00000 0 -21082995.011 -12127005.249 -7554604.133 10 0 59339 3600.00000 0 -20057580.353 -11676140.087 -10488442.052 10 0 59339 4500.00000 0 -18665980.238 -11206192.387 -13217585.480 10 0 59339 5400.00000 0 -16930498.462 -10771031.554 -15688818.834 10 0 59339 6300.00000 0 -14885500.083 -10420288.778 -17854005.355 10 0 59339 7200.00000 0 -12576165.305 -10197094.513 -19671032.194 10 0 59339 8100.00000 0 -10056799.280 -10136109.809 -21104631.823 10 0 59339 9000.00000 0 -7388769.644 -10261935.443 -22127063.757 10 0 59339 9900.00000 0 -4638159.247 -10587966.124 -22718643.834 10 0 59339 10800.00000 0 -1873232.991 -11115737.603 -22868111.813 10 0 59339 11700.00000 0 838175.053 -11834793.198 -22572831.499 10 0 59339 12600.00000 0 3431245.329 -12723073.992 -21838821.091 10 0 59339 13500.00000 0 5846620.399 -13747814.808 -20680614.797 10 0 59339 14400.00000 0 8032615.933 -14866906.859 -19120960.012 10 0 59339 15300.00000 0 9947104.966 -16030668.528 -17190357.331 10 0 59339 16200.00000 0 11558999.428 -17183949.015 -14926453.530 10 0 59339 17100.00000 0 12849270.093 -18268476.022 -12373300.120 10 0 59339 18000.00000 0 13811465.292 -19225348.810 -9580492.497 10 0 59339 18900.00000 0 14451709.714 -19997572.372 -6602206.603 10 0 59339 19800.00000 0 14788186.061 -20532527.026 -3496151.683 10 0 59339 20700.00000 0 14850123.469 -20784270.740 -322459.199 10 0 59339 21600.00000 0 14676336.878 -20715578.625 2857471.202 10 0 59339 22500.00000 0 14313379.737 -20299635.041 5982147.161 10 0 59339 23400.00000 0 13813388.060 -19521308.178 8991158.688 10 0 59339 24300.00000 0 13231706.317 -18377954.146 11826331.287 10 0 59339 25200.00000 0 12624394.354 -16879716.883 14432836.126 10 0 59339 26100.00000 0 12045719.184 -15049310.785 16760236.985 10 0 59339 27000.00000 0 11545736.028 -12921293.986 18763455.025 10 0 59339 27900.00000 0 11168059.245 -10540860.869 20403633.880 10 0 59339 28800.00000 0 10947916.065 -7962202.044 21648889.157 10 0 59339 29700.00000 0 10910564.538 -5246497.515 22474928.447 10 0 59339 30600.00000 0 11070142.390 -2459623.865 22865530.010 10 0 59339 31500.00000 0 11428995.923 330331.782 22812870.505 10 0 59339 32400.00000 0 11977518.592 3055650.108 22317694.662 10 0 59339 33300.00000 0 12694507.908 5651545.052 21389322.301 10 0 59339 34200.00000 0 13548027.916 8058611.020 20045490.926 10 0 59339 35100.00000 0 14496743.274 10225050.818 18312035.032 10 0 59339 36000.00000 0 15491670.993 12108591.645 16222406.287 10 0 59339 36900.00000 0 16478277.802 13678008.742 13817042.014 10 0 59339 37800.00000 0 17398835.893 14914192.264 11142592.547 10 0 59339 38700.00000 0 18194938.060 15810711.756 8251021.212 10 0 59339 39600.00000 0 18810065.593 16373853.549 5198593.851 10 0 59339 40500.00000 0 19192099.228 16622128.910 2044777.517 10 0 59339 41400.00000 0 19295665.170 16585273.446 -1148929.596 10 0 59339 42300.00000 0 19084214.683 16302780.296 -4320212.854 10 0 59339 43200.00000 0 18531746.882 15822030.113 -7407175.189 10 0 59339 44100.00000 0 17624099.517 15196098.403 -10349564.323 10 0 59339 45000.00000 0 16359751.216 14481334.985 -13089967.145 10 0 59339 45900.00000 0 14750099.804 13734820.200 -15574945.993 10 0 59339 46800.00000 0 12819204.053 13011807.735 -17756093.054 10 0 59339 47700.00000 0 10602999.524 12363264.191 -19590981.062 10 0 59339 48600.00000 0 8148021.678 11833610.923 -21043991.184 10 0 59339 49500.00000 0 5509690.512 11458764.473 -22087001.922 10 0 59339 50400.00000 0 2750229.455 11264558.512 -22699926.105 10 0 59339 51300.00000 0 -63693.635 11265613.413 -22871086.540 10 0 59339 52200.00000 0 -2863504.340 11464699.983 -22597424.391 10 0 59339 53100.00000 0 -5581332.310 11852622.689 -21884537.778 10 0 59339 54000.00000 0 -8152586.329 12408625.450 -20746551.532 10 0 59339 54900.00000 0 -10518387.596 13101301.120 -19205822.211 10 0 59339 55800.00000 0 -12627761.418 13889964.646 -17292485.552 10 0 59339 56700.00000 0 -14439498.244 14726430.772 -15043856.327 10 0 59339 57600.00000 0 -15923609.020 15557120.483 -12503693.132 10 0 59339 58500.00000 0 -17062316.934 16325407.110 -9721342.960 10 0 59339 59400.00000 0 -17850546.998 16974103.344 -6750782.441 10 0 59339 60300.00000 0 -18295895.748 17447984.963 -3649574.225 10 0 59339 61200.00000 0 -18418084.647 17696245.851 -477758.505 10 0 59339 62100.00000 0 -18247922.033 17674782.011 2703299.436 10 0 59339 63000.00000 0 -17825818.493 17348209.521 5832084.196 10 0 59339 63900.00000 0 -17199918.607 16691532.532 8848105.855 10 0 59339 64800.00000 0 -16423927.635 15691391.824 11693054.693 10 0 59339 65700.00000 0 -15554723.925 14346841.687 14311913.932 10 0 59339 66600.00000 0 -14649856.413 12669622.204 16654010.192 10 0 59339 67500.00000 0 -13765031.163 10683914.515 18673982.688 10 0 59339 68400.00000 0 -12951691.209 8425587.673 20332653.531 10 0 59339 69300.00000 0 -12254790.169 5940966.409 21597783.178 10 0 59339 70200.00000 0 -11710852.258 3285168.597 22444697.029 10 0 59339 71100.00000 0 -11346399.689 520078.759 22856771.228 10 0 59339 72000.00000 0 -11176813.687 -2287960.858 22825767.935 10 0 59339 72900.00000 0 -11205677.619 -5070648.384 22352012.817 10 0 59339 73800.00000 0 -11424631.153 -7760308.097 21444410.058 10 0 59339 74700.00000 0 -11813743.241 -10292458.047 20120292.973 10 0 59339 75600.00000 0 -12342390.224 -12608253.869 18405111.195 10 0 59339 76500.00000 0 -12970604.006 -14656707.472 16331958.478 10 0 59339 77400.00000 0 -13650835.245 -16396587.805 13940948.359 10 0 59339 78300.00000 0 -14330058.440 -17797923.615 11278448.104 10 0 59339 79200.00000 0 -14952130.638 -18843044.293 8396184.552 10 0 59339 80100.00000 0 -15460303.955 -19527113.985 5350238.585 10 0 59339 81000.00000 0 -15799784.704 -19858135.549 2199947.783 10 0 59339 81900.00000 0 -15920229.229 -19856423.578 -993260.855 10 0 59339 82800.00000 0 -15778068.628 -19553568.550 -4167084.016 10 0 59339 83700.00000 0 -15338561.500 -18990936.338 -7259575.737 10 0 59339 84600.00000 0 -14577485.299 -18217767.593 -10210375.590 10 0 59339 85500.00000 0 -13482392.480 -17288958.952 -12961905.238 10 0 59340 0.00000 0 -12053376.501 -16262621.867 -15460508.074 10 0 59340 900.00000 0 -10303313.535 -15197524.516 -17657508.292 10 0 59340 1800.00000 0 -8257570.268 -14150526.353 -19510166.848 10 0 59340 2700.00000 0 -5953187.937 -13174116.387 -20982515.839 10 0 59340 3600.00000 0 -3437579.046 -12314158.827 -22046054.502 10 0 59340 4500.00000 0 -766790.947 -11607942.577 -22680293.826 10 0 59340 5400.00000 0 1996589.890 -11082615.963 -22873140.261 10 0 59340 6300.00000 0 4785804.875 -10754071.714 -22621112.351 10 0 59340 7200.00000 0 7532462.319 -10626327.516 -21929387.639 10 0 59340 8100.00000 0 10169142.775 -10691426.179 -20811680.618 10 0 59340 9000.00000 0 12631962.819 -10929857.438 -19289955.632 10 0 59340 9900.00000 0 14862991.548 -11311481.451 -17393981.809 10 0 59340 10800.00000 0 16812420.960 -11796913.204 -15160739.819 10 0 59340 11700.00000 0 18440401.937 -12339307.979 -12633692.888 10 0 59340 12600.00000 0 19718471.687 -12886471.648 -9861936.836 10 0 59340 13500.00000 0 20630515.781 -13383206.372 -6899245.914 10 0 59340 14400.00000 0 21173227.172 -13773792.913 -3803032.860 10 0 59340 15300.00000 0 21356045.381 -14004505.393 -633243.129 10 0 59340 16200.00000 0 21200580.406 -14026053.333 2548795.888 10 0 59340 17100.00000 0 20739547.004 -13795849.050 5681549.194 10 0 59340 18000.00000 0 20015254.909 -13280005.890 8704450.217 10 0 59340 18900.00000 0 19077718.588 -12454983.945 11559056.994 10 0 59340 19800.00000 0 17982465.520 -11308814.452 14190167.401 10 0 59340 20700.00000 0 16788134.129 -9841851.319 16546873.080 10 0 59340 21600.00000 0 15553960.922 -8067017.530 18583533.001 10 0 59340 22500.00000 0 14337260.815 -6009534.682 20260648.977 10 0 59340 23400.00000 0 13191004.874 -3706144.998 21545627.067 10 0 59340 24300.00000 0 12161595.780 -1203855.758 22413410.767 10 0 59340 25200.00000 0 11286933.324 1441744.413 22846973.948 10 0 59340 26100.00000 0 10594850.637 4168530.248 22837663.684 10 0 59340 27000.00000 0 10101986.819 6910163.416 22385385.598 10 0 59340 27900.00000 0 9813143.920 9598601.028 21498626.913 10 0 59340 28800.00000 0 9721156.421 12166686.758 20194315.110 10 0 59340 29700.00000 0 9807280.196 14550718.307 18497513.065 10 0 59340 30600.00000 0 10042086.195 16692885.073 16440954.511 10 0 59340 31500.00000 0 10386822.774 18543474.299 14064426.927 10 0 59340 32400.00000 0 10795190.477 20062753.074 11414012.122 10 0 59340 33300.00000 0 11215455.018 21222446.361 8541197.951 10 0 59340 34200.00000 0 11592809.261 22006747.779 5501877.794 10 0 59340 35100.00000 0 11871883.538 22412819.402 2355257.171 10 0 59340 36000.00000 0 11999296.675 22450758.535 -837310.662 10 0 59340 36900.00000 0 11926137.661 22143032.189 -4013536.181 10 0 59340 37800.00000 0 11610270.442 21523403.132 -7111426.851 10 0 59340 38700.00000 0 11018361.631 20635393.425 -10070516.202 10 0 59340 39600.00000 0 10127542.806 19530351.557 -12833062.543 10 0 59340 40500.00000 0 8926634.881 18265206.471 -15345192.004 10 0 59340 41400.00000 0 7416881.057 16900005.276 -17557961.959 10 0 59340 42300.00000 0 5612156.351 15495340.529 -19428322.737 10 0 59340 43200.00000 0 3538644.262 14109777.365 -20919958.283 10 0 59340 44100.00000 0 1233994.162 12797390.142 -22003989.261 10 0 59340 45000.00000 0 -1254004.806 11605513.020 -22659525.359 10 0 59340 45900.00000 0 -3869177.150 10572798.999 -22874057.008 10 0 59340 46800.00000 0 -6549067.818 9727668.167 -22643680.249 10 0 59340 47700.00000 0 -9227313.756 9087208.858 -21973151.900 10 0 59340 48600.00000 0 -11836181.177 8656575.814 -20875775.647 10 0 59340 49500.00000 0 -14309163.011 8428908.146 -19373122.835 10 0 59340 50400.00000 0 -16583529.010 8385768.082 -17494594.862 10 0 59340 51300.00000 0 -18602723.564 8498079.536 -15276836.897 10 0 59340 52200.00000 0 -20318513.063 8727524.899 -12763015.169 10 0 59340 53100.00000 0 -21692795.282 9028339.579 -10001972.531 10 0 59340 54000.00000 0 -22698997.702 9349427.572 -7047278.947 10 0 59340 54900.00000 0 -23323008.711 9636708.370 -3956195.266 10 0 59340 55800.00000 0 -23563605.050 9835596.290 -788570.163 10 0 59340 56700.00000 0 -23432359.614 9893508.111 2394308.969 10 0 59340 57600.00000 0 -22953035.042 9762294.087 5530889.723 10 0 59340 58500.00000 0 -22160489.536 9400490.741 8560531.145 10 0 59340 59400.00000 0 -21099141.186 8775301.398 11424661.377 10 0 59340 60300.00000 0 -19821054.986 7864221.617 14067895.343 10 0 59340 61200.00000 0 -18383731.999 6656241.396 16439092.100 10 0 59340 62100.00000 0 -16847692.110 5152573.191 18492332.690 10 0 59340 63000.00000 0 -15273950.099 3366874.154 20187800.798 10 0 59340 63900.00000 0 -13721489.138 1324951.612 21492550.011 10 0 59340 64800.00000 0 -12244835.846 -936038.251 22381143.557 10 0 59340 65700.00000 0 -10891837.091 -3368867.879 22836154.305 10 0 59340 66600.00000 0 -9701730.634 -5917941.687 22848515.128 10 0 59340 67500.00000 0 -8703589.938 -8521357.468 22417712.093 10 0 59340 68400.00000 0 -7915208.350 -11113242.951 21551815.519 10 0 59340 69300.00000 0 -7342470.072 -13626272.630 20267346.709 10 0 59340 70200.00000 0 -6979235.280 -15994261.957 18588981.032 10 0 59340 71100.00000 0 -6807745.524 -18154731.950 16549091.061 10 0 59340 72000.00000 0 -6799533.641 -20051337.480 14187136.727 10 0 59340 72900.00000 0 -6916801.027 -21636057.458 11548912.564 10 0 59340 73800.00000 0 -7114204.876 -22871054.311 8685665.362 10 0 59340 74700.00000 0 -7340980.116 -23730123.354 5653098.688 10 0 59340 75600.00000 0 -7543305.809 -24199669.720 2510283.530 10 0 59340 76500.00000 0 -7666814.649 -24279170.293 -681503.231 10 0 59340 77400.00000 0 -7659137.475 -23981100.079 -3859988.592 10 0 59340 78300.00000 0 -7472372.668 -23330325.552 -6963136.294 10 0 59340 79200.00000 0 -7065373.232 -22362990.594 -9930376.742 10 0 59340 80100.00000 0 -6405752.083 -21124942.754 -12703807.838 10 0 59340 81000.00000 0 -5471518.255 -19669767.495 -15229341.337 10 0 59340 81900.00000 0 -4252272.790 -18056515.001 -17457770.679 10 0 59340 82800.00000 0 -2749912.382 -16347217.256 -19345738.133 10 0 59340 83700.00000 0 -978810.195 -14604301.732 -20856581.755 10 0 59340 84600.00000 0 1034534.125 -12888011.930 -21961045.516 10 0 59340 85500.00000 0 3252360.266 -11253944.185 -22637839.199 10 0 59341 0.00000 0 5626992.118 -9750804.281 -22874038.127 10 0 59341 900.00000 0 8102604.977 -8418477.692 -22665316.234 10 0 59341 1800.00000 0 10617339.859 -7286492.396 -22016009.558 10 0 59341 2700.00000 0 13105677.010 -6372938.045 -20939010.463 10 0 59341 3600.00000 0 15500969.010 -5683882.728 -19455496.374 10 0 59341 4500.00000 0 17738028.216 -5213310.266 -17594499.648 10 0 59341 5400.00000 0 19755661.531 -4943577.265 -15392328.229 10 0 59341 6300.00000 0 21499048.110 -4846368.241 -12891849.225 10 0 59341 7200.00000 0 22921862.412 -4884106.383 -10141649.984 10 0 59341 8100.00000 0 23988056.009 -5011758.833 -7195093.269 10 0 59341 9000.00000 0 24673225.853 -5178959.298 -4109284.792 10 0 59341 9900.00000 0 24965513.872 -5332358.030 -943972.960 10 0 59341 10800.00000 0 24866002.206 -5418100.113 2239598.438 10 0 59341 11700.00000 0 24388589.111 -5384328.000 5379863.191 10 0 59341 12600.00000 0 23559351.810 -5183603.573 8416109.428 10 0 59341 13500.00000 0 22415423.522 -4775148.449 11289638.610 10 0 59341 14400.00000 0 21003431.615 -4126808.895 13944885.588 10 0 59341 15300.00000 0 19377561.644 -3216663.090 16330479.293 10 0 59341 16200.00000 0 17597327.148 -2034203.120 18400224.872 10 0 59341 17100.00000 0 15725136.923 -581041.355 20113989.441 10 0 59341 18000.00000 0 13823759.784 1128889.654 21438475.234 10 0 59341 18900.00000 0 11953790.929 3069654.142 22347865.848 10 0 59341 19800.00000 0 10171224.073 5204136.268 22824333.351 10 0 59341 20700.00000 0 8525229.487 7485337.924 22858396.147 10 0 59341 21600.00000 0 7056229.807 9858100.207 22449120.018 10 0 59341 22500.00000 0 5794353.632 12261179.871 21604157.225 10 0 59341 23400.00000 0 4758331.768 14629596.857 20339621.319 10 0 59341 24300.00000 0 3954882.883 16897157.285 18679798.215 10 0 59341 25200.00000 0 3378615.234 18999048.148 16656697.076 10 0 59341 26100.00000 0 3012449.706 20874396.044 14309447.765 10 0 59341 27000.00000 0 2828547.369 22468682.854 11683554.837 10 0 59341 27900.00000 0 2789703.220 23735916.449 8830021.170 10 0 59341 28800.00000 0 2851147.623 24640463.973 5804357.583 10 0 59341 29700.00000 0 2962679.003 25158469.031 2665497.558 10 0 59341 30600.00000 0 3071036.614 25278791.447 -525361.331 10 0 59341 31500.00000 0 3122411.321 25003428.425 -3705965.451 10 0 59341 32400.00000 0 3064985.860 24347398.277 -6814237.476 10 0 59341 33300.00000 0 2851394.462 23338091.071 -9789507.111 10 0 59341 34200.00000 0 2440994.972 22014113.693 -12573713.972 10 0 59341 35100.00000 0 1801854.732 20423678.823 -15112557.231 10 0 59341 36000.00000 0 912363.952 18622606.946 -17356567.856 10 0 59341 36900.00000 0 -237593.340 16672027.202 -19262081.201 10 0 59341 37800.00000 0 -1645961.351 14635875.474 -20792090.282 10 0 59341 38700.00000 0 -3298356.780 12578296.352 -21916962.955 10 0 59341 39600.00000 0 -5168441.761 10561059.188 -22615009.426 10 0 59341 40500.00000 0 -7218809.515 8641097.071 -22872889.956 10 0 59341 41400.00000 0 -9402344.884 6868271.542 -22685856.164 10 0 59341 42300.00000 0 -11664002.000 5283455.709 -22057822.736 10 0 59341 43200.00000 0 -13942924.118 3917014.168 -21001269.850 10 0 59341 44100.00000 0 -16174816.633 2787740.996 -19536979.766 10 0 59341 45000.00000 0 -18294474.115 1902297.499 -17693614.238 10 0 59341 45900.00000 0 -20238356.280 1255170.255 -15507142.146 10 0 59341 46800.00000 0 -21947106.230 829148.198 -13020129.429 10 0 59341 47700.00000 0 -23367907.034 596296.026 -10280905.750 10 0 59341 48600.00000 0 -24456579.829 519380.711 -7342624.414 10 0 59341 49500.00000 0 -25179337.567 553689.361 -4262233.717 10 0 59341 50400.00000 0 -25514122.902 649160.827 -1099379.511 10 0 59341 51300.00000 0 -25451476.039 752740.777 2084740.314 10 0 59341 52200.00000 0 -24994897.714 810861.008 5228548.046 10 0 59341 53100.00000 0 -24160693.199 771939.051 8271263.210 10 0 59341 54000.00000 0 -22977304.491 588793.413 11154062.895 10 0 59341 54900.00000 0 -21484158.613 220873.519 13821204.147 10 0 59341 55800.00000 0 -19730079.687 -363788.879 16221087.961 10 0 59341 56700.00000 0 -17771330.030 -1186988.623 18307245.605 10 0 59341 57600.00000 0 -15669360.599 -2259183.489 20039229.421 10 0 59341 58500.00000 0 -13488362.841 -3578807.616 21383391.768 10 0 59341 59400.00000 0 -11292722.153 -5132092.308 22313537.754 10 0 59341 60300.00000 0 -9144477.164 -6893403.893 22811439.385 10 0 59341 61200.00000 0 -7100889.168 -8826087.084 22867200.949 10 0 59341 62100.00000 0 -5212221.691 -10883781.612 22479467.918 10 0 59341 63000.00000 0 -3519821.957 -13012160.236 21655474.101 10 0 59341 63900.00000 0 -2054584.121 -15151018.374 20410924.565 10 0 59341 64800.00000 0 -835858.597 -17236630.639 18769714.730 10 0 59341 65700.00000 0 129146.232 -19204277.672 16763489.001 10 0 59341 66600.00000 0 845443.988 -20990838.653 14431045.564 10 0 59341 67500.00000 0 1329827.688 -22537341.236 11817597.121 10 0 59341 68400.00000 0 1609922.420 -23791361.497 8973900.552 10 0 59341 69300.00000 0 1722772.764 -24709171.867 5955271.664 10 0 59341 70200.00000 0 1713024.731 -25257545.093 2820504.036 10 0 59341 71100.00000 0 1630779.771 -25415136.359 -369286.563 10 0 59341 72000.00000 0 1529212.995 -25173383.418 -3551868.433 10 0 59341 72900.00000 0 1462058.432 -24536885.185 -6665125.795 10 0 59341 73800.00000 0 1481070.227 -23523241.683 -9648290.288 10 0 59341 74700.00000 0 1633569.900 -22162361.663 -12443145.880 10 0 59341 75600.00000 0 1960186.182 -20495267.218 -14995181.741 10 0 59341 76500.00000 0 2492885.436 -18572446.563 -17254668.835 10 0 59341 77400.00000 0 3253377.891 -16451825.573 -19177637.871 10 0 59341 78300.00000 0 4251968.381 -14196444.856 -20726738.815 10 0 59341 79200.00000 0 5486900.875 -11871941.303 -21871965.048 10 0 59341 80100.00000 0 6944224.544 -9543941.050 -22591228.415 10 0 59341 81000.00000 0 8598186.706 -7275473.689 -22870774.907 10 0 59341 81900.00000 0 10412135.480 -5124515.994 -22705434.158 10 0 59341 82800.00000 0 12339893.416 -3141767.227 -22098699.442 10 0 59341 83700.00000 0 14327543.671 -1368747.535 -21062638.262 10 0 59341 84600.00000 0 16315553.325 163703.272 -19617636.880 10 0 59341 85500.00000 0 18241144.540 1436466.378 -17791985.238 99